Sarasota, FL

7:19 PM EDT on September 22, 2019 (GMT -0400)
Sarasota-bradenton

Weather History for KSRQ - July, 2019

Change the Weather History Date:

Tuesday, July 23, 2019

  Actual Average Record
Temperature  
Mean Temperature 81 °F 82 °F  
Max Temperature 88 °F 90 °F 101 °F (1971)
Min Temperature 74 °F 75 °F 66 °F (1971)
Degree Days  
Heating Degree Days 0 0  
Month to date heating degree days 0 0  
Since 1 June heating degree days 0 0  
Since 1 July heating degree days 0 0  
Cooling Degree Days 16 18  
Month to date cooling degree days 416 398  
Year to date cooling degree days 2132 1621  
Since 1 June cooling degree days 975 870  
Growing Degree Days 30 (Base 50)    
Moisture  
Dew Point 75 °F    
Average Humidity 82    
Maximum Humidity 100    
Minimum Humidity 70    
Precipitation  
Precipitation 0.26 in 0.24 in 2.38 in (1915)
Month to date precipitation 11.32 5.88  
Year to date precipitation 25.93 27.09  
Sea Level Pressure  
Sea Level Pressure 29.95 in    
Wind  
Wind Speed 7 mph (SW)    
Max Wind Speed 21 mph    
Max Gust Speed 26 mph    
Visibility 10 miles    
Events Rain , Thunderstorm    
T = Trace of Precipitation, MM = Missing Value Source: NWS Daily Summary

Daily Weather History Graph

Daily Weather History Graph

Search for Another Location

Airport or City:

Astronomy

Jul. 23, 2019 Rise Set
Actual Time 6:48 AM EDT 8:24 PM EDT
Civil Twilight 6:23 AM EDT 8:49 PM EDT
Nautical Twilight 5:52 AM EDT 9:20 PM EDT
Astronomical Twilight 5:20 AM EDT 9:52 PM EDT
Moon 12:11 AM EDT (7/23) 12:31 PM EDT (7/23)
Length of Visible Light 14h 26m
Length of Day
13h 35m
Waning Gibbous, 63% of the Moon is Illuminated
Jul 23
Waning Gibbous
Jul 24
Last Quarter
Jul 31
New
Aug 7
First Quarter
Aug 15
Full

Hourly Weather History & Observations

Time (EDT) Temp. Heat Index Dew Point Humidity Pressure Visibility Wind Dir Wind Speed Gust Speed Precip Events Conditions
12:53 AM 75.0 °F - 73.9 °F 96% 29.98 in 10.0 mi NNE 3.5 mph - N/A   Clear
1:53 AM 75.0 °F - 73.9 °F 96% 29.96 in 10.0 mi ENE 5.8 mph - N/A   Clear
2:53 AM 75.9 °F - 73.9 °F 94% 29.95 in 10.0 mi East 3.5 mph - N/A   Clear
3:53 AM 75.0 °F - 73.9 °F 96% 29.94 in 10.0 mi SE 3.5 mph - N/A   Partly Cloudy
4:53 AM 75.0 °F - 73.9 °F 96% 29.93 in 10.0 mi ESE 5.8 mph - N/A   Clear
5:17 AM 75.0 °F - 73.9 °F 96% 29.93 in 10.0 mi SE 3.5 mph - N/A   Scattered Clouds
5:53 AM 75.0 °F - 73.9 °F 96% 29.94 in 10.0 mi East 4.6 mph - N/A   Clear
6:53 AM 73.9 °F - 73.0 °F 97% 29.94 in 10.0 mi ESE 4.6 mph - N/A   Clear
7:53 AM 75.0 °F - 73.0 °F 94% 29.96 in 10.0 mi SE 5.8 mph - N/A   Clear
8:53 AM 79.0 °F - 75.9 °F 90% 29.96 in 10.0 mi SSE 4.6 mph - N/A   Clear
9:53 AM 82.9 °F 90.8 °F 75.9 °F 79% 29.97 in 10.0 mi South 5.8 mph - N/A   Partly Cloudy
10:53 AM 84.9 °F 95.3 °F 77.0 °F 77% 29.98 in 10.0 mi WSW 8.1 mph - N/A   Scattered Clouds
11:53 AM 84.9 °F 94.1 °F 75.9 °F 74% 29.97 in 10.0 mi Variable 6.9 mph - N/A   Clear
12:02 PM 86.0 °F 96.0 °F 75.9 °F 72% 29.97 in 10.0 mi West 6.9 mph - N/A Thunderstorm Mostly Cloudy
12:32 PM 88.0 °F 98.5 °F 75.9 °F 67% 29.96 in 10.0 mi West 9.2 mph - N/A   Mostly Cloudy
12:42 PM 82.0 °F 89.4 °F 75.9 °F 82% 29.96 in 1.5 mi WSW 13.8 mph 26.5 mph 0.11 in Rain Heavy Rain
12:53 PM 81.0 °F 86.7 °F 75.0 °F 82% 29.95 in 6.0 mi West 10.4 mph - 0.16 in Rain Light Rain
1:00 PM 82.0 °F 88.6 °F 75.0 °F 79% 29.95 in 10.0 mi WSW 8.1 mph 17.3 mph 0.00 in Rain Light Rain
1:53 PM 84.0 °F 91.9 °F 75.0 °F 74% 29.96 in 10.0 mi West 9.2 mph - 0.00 in   Partly Cloudy
2:53 PM 84.9 °F 93.3 °F 75.0 °F 72% 29.94 in 10.0 mi WSW 6.9 mph - N/A   Clear
3:53 PM 84.0 °F 91.2 °F 73.9 °F 72% 29.93 in 10.0 mi WNW 15.0 mph - N/A   Partly Cloudy
4:53 PM 84.0 °F 91.9 °F 75.0 °F 74% 29.92 in 10.0 mi WSW 8.1 mph - N/A   Clear
5:53 PM 84.0 °F 91.2 °F 73.9 °F 72% 29.91 in 10.0 mi WSW 8.1 mph - N/A   Clear
6:53 PM 84.0 °F 91.9 °F 75.0 °F 74% 29.90 in 10.0 mi WSW 6.9 mph - N/A   Clear
7:53 PM 84.0 °F 91.9 °F 75.0 °F 74% 29.92 in 10.0 mi WSW 8.1 mph - N/A   Clear
8:53 PM 82.9 °F 90.8 °F 75.9 °F 79% 29.94 in 10.0 mi SW 6.9 mph - N/A   Scattered Clouds
9:00 PM 82.9 °F 90.2 °F 75.0 °F 77% 29.94 in 10.0 mi SSW 8.1 mph - N/A   Scattered Clouds
9:53 PM 82.9 °F 90.2 °F 75.0 °F 77% 29.94 in 10.0 mi SSW 8.1 mph - N/A   Scattered Clouds
10:05 PM 82.9 °F 90.2 °F 75.0 °F 77% 29.95 in 10.0 mi SW 8.1 mph - N/A   Mostly Cloudy
10:29 PM 82.9 °F 89.4 °F 73.9 °F 74% 29.95 in 10.0 mi WSW 8.1 mph - N/A   Mostly Cloudy
10:53 PM 82.9 °F 89.4 °F 73.9 °F 74% 29.95 in 10.0 mi SW 5.8 mph - N/A   Scattered Clouds
11:53 PM 82.9 °F 90.2 °F 75.0 °F 77% 29.96 in 10.0 mi SW 9.2 mph - N/A   Scattered Clouds